Simultaneous Nadir Overpasses (SNOs) Predictions

Prediction of SNOs between NOAA-20 and LANDSAT-9 Satellite Orbit:

Table of predicted SNOs for the next 14.0 days since TLE Epoch: 6/29/2024
Index Date (NOAA-20) Time (NOAA-20) Lat,Lon (NOAA-20) SZA (NOAA-20 ) Date (LANDSAT-9) Time (LANDSAT-9) Lat,Lon (LANDSAT-9) SZA (LANDSAT-9 ) Distance(km) Time Diff (sec)
1 06/29/2024 14:52:54 70.13, -47.00 46.93 06/29/2024 14:53:23 70.12, -47.04 46.91 1.96 29
2 06/29/2024 15:43:35 -70.01, 120.50 133.20 06/29/2024 15:42:53 -70.01, 120.43 133.19 2.62 42
3 07/02/2024 06:19:14 -70.63, -99.34 132.36 07/02/2024 06:20:24 -70.53, -98.22 132.51 42.74 70
4 07/02/2024 07:09:51 70.12, 68.77 47.11 07/02/2024 07:09:57 70.10, 68.80 47.09 2.14 6
5 07/02/2024 08:00:32 -70.00,-123.73 133.02 07/02/2024 07:59:27 -70.00,-123.72 133.01 0.67 65
6 07/04/2024 22:36:02 -70.15, 17.17 132.63 07/04/2024 22:37:04 -70.15, 17.09 132.64 2.78 62
7 07/04/2024 23:26:47 70.07,-175.40 47.29 07/04/2024 23:26:31 70.05,-175.41 47.27 2.61 16
8 07/05/2024 00:17:19 -69.47, -7.19 133.33 07/05/2024 00:16:09 -69.50, -8.53 133.25 52.23 70
9 07/07/2024 14:52:58 -70.16, 132.91 132.33 07/07/2024 14:53:35 -70.16, 132.98 132.35 2.67 37
10 07/07/2024 15:43:42 70.03, -59.57 47.53 07/07/2024 15:43:02 70.05, -59.53 47.56 3.34 40
11 07/10/2024 06:19:21 70.67, 80.54 48.54 07/10/2024 06:20:31 70.55, 81.80 48.36 48.55 70
12 07/10/2024 07:09:53 -70.07,-111.20 132.10 07/10/2024 07:10:08 -70.07,-111.27 132.10 2.81 15
13 07/10/2024 08:00:38 69.99, 56.23 47.83 07/10/2024 07:59:34 70.01, 56.29 47.85 3.21 64
14 07/12/2024 22:36:08 70.18,-162.91 48.38 07/12/2024 22:37:09 70.14,-162.92 48.34 3.69 61
15 07/12/2024 23:26:49 -70.05, 4.60 131.75 07/12/2024 23:26:39 -70.05, 4.58 131.75 1.07 10
16 07/13/2024 00:17:24 69.44, 172.81 47.62 07/13/2024 00:16:14 69.49, 171.45 47.73 53.23 70



Historial Predications of SNOs between NOAA-20 and LANDSAT-9
